Terminal Aerodrome Forecast
Issued by NWS

Home | Current Version | Previous Version | Text Only | Print | Product List | Glossary On
Versions: 1 2 3 4 5 6 7 8 9 10 11 12 13 14 15 16 17 18 19 20 21
000
FTUS41 KBTV 271329 AAA
TAFPBG
TAF AMD
KPBG 271329Z 2713/2812 15012KT P6SM OVC035
      TEMPO 2713/2717 6SM -RA BR OVC030
     FM271900 15006KT P6SM VCSH OVC030
     FM280000 15004KT P6SM OVC025
     FM280500 00000KT 4SM BR OVC008
     FM281100 00000KT P6SM VCSH OVC020=

USA.gov is the U.S. government's official web portal to all federal, state and local government web resources and services.